Location: Praha
(50.0830°N, 14.4670°E)
Time: 18:53:56
(UTC+02:00)

ISS - Pass Details

Date: 12 July 2021
Orbit: 419 x 421 km, 51.6° (Epoch: 02 August)

Event Time Altitude Azimuth Distance (km) Brightness Sun altitude
Rises 22:05:47 0° 190° (S) 2,355 -0.3 -7.6°
Enters shadow 22:07:41 - 174° (S) 1,785 -1.1 -7.8°
Exits shadow 22:10:04 11° 138° (SE) 1,435 -1.7 -8.0°
Maximum altitude 22:10:12 11° 135° (SE) 1,434 -1.7 -8.0°
Drops below altitude 10° 22:11:13 10° 117° (ESE) 1,500 -1.5 -8.2°
Sets 22:14:37 0° 81° (E) 2,370 -0.2 -8.5°
